contact:dominique.lefevre@mio.osupytheas.fr, maurice.libes@osupytheas.fr, didier.mallarino@osupytheas.fr
Project:EMSO http://www.emso-fr.org/EMSO-France
Depth: 2436.0 m
Title:EMSO Ligure Ouest : Data MII capteur MICROCAT
DateTime_Computer,Latitude,Longitude,Temperature,Conductivity,Pressure,DateTime_Instrument
DateTime_Computer,Latitude,Longitude,degC,S m-1,dbar,DateTime_Instrument
2022-12-13T00:01:24Z,42.805,6.029,13.3034,4.60123,2470.507,2022-12-13T02:07:23Z
2022-12-13T00:04:27Z,42.805,6.029,13.3028,4.60116,2470.53,2022-12-13T02:10:26Z
2022-12-13T00:07:30Z,42.805,6.029,13.3037,4.60130,2470.53,2022-12-13T02:13:29Z
2022-12-13T00:10:33Z,42.805,6.029,13.3038,4.60114,2470.544,2022-12-13T02:16:33Z
2022-12-13T00:13:37Z,42.805,6.029,13.3019,4.60107,2470.544,2022-12-13T02:19:36Z
2022-12-13T00:16:40Z,42.805,6.029,13.3031,4.60127,2470.544,2022-12-13T02:22:39Z
2022-12-13T00:19:43Z,42.805,6.029,13.3026,4.60140,2470.507,2022-12-13T02:25:42Z
2022-12-13T00:22:46Z,42.805,6.029,13.3034,4.60105,2470.483,2022-12-13T02:28:45Z
2022-12-13T00:25:49Z,42.805,6.029,13.3029,4.60125,2470.507,2022-12-13T02:31:48Z
2022-12-13T00:28:52Z,42.805,6.029,13.3043,4.60126,2470.52,2022-12-13T02:34:51Z
2022-12-13T00:31:55Z,42.805,6.029,13.3039,4.60129,2470.507,2022-12-13T02:37:54Z
2022-12-13T00:34:58Z,42.805,6.029,13.3022,4.60113,2470.507,2022-12-13T02:40:57Z
2022-12-13T00:38:01Z,42.805,6.029,13.3030,4.60110,2470.52,2022-12-13T02:44:00Z
2022-12-13T00:41:04Z,42.805,6.029,13.3031,4.60119,2470.507,2022-12-13T02:47:03Z
2022-12-13T00:44:07Z,42.805,6.029,13.3038,4.60131,2470.507,2022-12-13T02:50:06Z
2022-12-13T00:47:10Z,42.805,6.029,13.3029,4.60132,2470.474,2022-12-13T02:53:10Z
2022-12-13T00:50:14Z,42.805,6.029,13.3026,4.60129,2470.544,2022-12-13T02:56:13Z
2022-12-13T00:53:17Z,42.805,6.029,13.3029,4.60110,2470.483,2022-12-13T02:59:16Z
2022-12-13T00:56:20Z,42.805,6.029,13.3033,4.60118,2470.52,2022-12-13T03:02:19Z
2022-12-13T00:59:23Z,42.805,6.029,13.3032,4.60124,2470.507,2022-12-13T03:05:22Z
2022-12-13T01:02:26Z,42.805,6.029,13.3019,4.60101,2470.507,2022-12-13T03:08:25Z
2022-12-13T01:05:29Z,42.805,6.029,13.3039,4.60125,2470.52,2022-12-13T03:11:28Z
2022-12-13T01:08:32Z,42.805,6.029,13.3027,4.60157,2470.497,2022-12-13T03:14:31Z
2022-12-13T01:11:35Z,42.805,6.029,13.3038,4.60138,2470.507,2022-12-13T03:17:34Z
2022-12-13T01:14:38Z,42.805,6.029,13.3030,4.60132,2470.52,2022-12-13T03:20:37Z
2022-12-13T01:17:41Z,42.805,6.029,13.3033,4.60137,2470.497,2022-12-13T03:23:40Z
2022-12-13T01:20:44Z,42.805,6.029,13.3019,4.60108,2470.52,2022-12-13T03:26:44Z
2022-12-13T01:23:48Z,42.805,6.029,13.3025,4.60092,2470.483,2022-12-13T03:29:47Z
2022-12-13T01:26:51Z,42.805,6.029,13.3025,4.60126,2470.507,2022-12-13T03:32:50Z
2022-12-13T01:29:54Z,42.805,6.029,13.3030,4.60119,2470.507,2022-12-13T03:35:53Z
2022-12-13T01:32:57Z,42.805,6.029,13.3024,4.60114,2470.507,2022-12-13T03:38:56Z
2022-12-13T01:36:00Z,42.805,6.029,13.3029,4.60102,2470.53,2022-12-13T03:41:59Z
2022-12-13T01:39:03Z,42.805,6.029,13.3029,4.60124,2470.483,2022-12-13T03:45:02Z
2022-12-13T01:42:06Z,42.805,6.029,13.3030,4.60094,2470.52,2022-12-13T03:48:05Z
2022-12-13T01:45:09Z,42.805,6.029,13.3021,4.60123,2470.53,2022-12-13T03:51:08Z
2022-12-13T01:48:12Z,42.805,6.029,13.3047,4.60150,2470.483,2022-12-13T03:54:11Z
2022-12-13T01:51:15Z,42.805,6.029,13.3040,4.60122,2470.483,2022-12-13T03:57:14Z
2022-12-13T01:54:18Z,42.805,6.029,13.3023,4.60118,2470.483,2022-12-13T04:00:17Z
2022-12-13T01:57:21Z,42.805,6.029,13.3043,4.60141,2470.483,2022-12-13T04:03:21Z
2022-12-13T02:00:25Z,42.805,6.029,13.3029,4.60129,2470.52,2022-12-13T04:06:24Z
2022-12-13T02:03:28Z,42.805,6.029,13.3033,4.60141,2470.483,2022-12-13T04:09:27Z
2022-12-13T02:06:31Z,42.805,6.029,13.3028,4.60114,2470.52,2022-12-13T04:12:30Z
2022-12-13T02:09:34Z,42.805,6.029,13.3046,4.60119,2470.497,2022-12-13T04:15:33Z
2022-12-13T02:12:37Z,42.805,6.029,13.3057,4.60135,2470.497,2022-12-13T04:18:36Z
2022-12-13T02:15:40Z,42.805,6.029,13.3034,4.60150,2470.483,2022-12-13T04:21:39Z
2022-12-13T02:18:43Z,42.805,6.029,13.3020,4.60130,2470.507,2022-12-13T04:24:42Z
2022-12-13T02:21:46Z,42.805,6.029,13.3022,4.60099,2470.52,2022-12-13T04:27:45Z
2022-12-13T02:24:49Z,42.805,6.029,13.3028,4.60117,2470.46,2022-12-13T04:30:48Z
2022-12-13T02:27:52Z,42.805,6.029,13.3026,4.60106,2470.507,2022-12-13T04:33:51Z
2022-12-13T02:30:55Z,42.805,6.029,13.3023,4.60117,2470.497,2022-12-13T04:36:55Z
2022-12-13T02:33:58Z,42.805,6.029,13.3029,4.60135,2470.483,2022-12-13T04:39:58Z
2022-12-13T02:37:02Z,42.805,6.029,13.3052,4.60141,2470.483,2022-12-13T04:43:01Z
2022-12-13T02:40:05Z,42.805,6.029,13.3043,4.60170,2470.507,2022-12-13T04:46:04Z
2022-12-13T02:43:08Z,42.805,6.029,13.3062,4.60160,2470.52,2022-12-13T04:49:07Z
2022-12-13T02:46:11Z,42.805,6.029,13.3066,4.60125,2470.497,2022-12-13T04:52:10Z
2022-12-13T02:49:14Z,42.805,6.029,13.3038,4.60143,2470.46,2022-12-13T04:55:13Z
2022-12-13T02:52:17Z,42.805,6.029,13.3036,4.60135,2470.497,2022-12-13T04:58:16Z
2022-12-13T02:55:20Z,42.805,6.029,13.3025,4.60106,2470.483,2022-12-13T05:01:19Z
2022-12-13T02:58:23Z,42.805,6.029,13.3028,4.60132,2470.497,2022-12-13T05:04:22Z
2022-12-13T03:01:26Z,42.805,6.029,13.3043,4.60123,2470.52,2022-12-13T05:07:25Z
2022-12-13T03:04:29Z,42.805,6.029,13.3036,4.60126,2470.483,2022-12-13T05:10:28Z
2022-12-13T03:07:32Z,42.805,6.029,13.3034,4.60119,2470.507,2022-12-13T05:13:32Z
2022-12-13T03:10:35Z,42.805,6.029,13.3029,4.60117,2470.497,2022-12-13T05:16:35Z
2022-12-13T03:13:39Z,42.805,6.029,13.3045,4.60154,2470.483,2022-12-13T05:19:38Z
2022-12-13T03:16:42Z,42.805,6.029,13.3060,4.60112,2470.483,2022-12-13T05:22:41Z
2022-12-13T03:19:45Z,42.805,6.029,13.3033,4.60142,2470.483,2022-12-13T05:25:44Z
2022-12-13T03:22:48Z,42.805,6.029,13.3037,4.60127,2470.483,2022-12-13T05:28:47Z
2022-12-13T03:25:51Z,42.805,6.029,13.3040,4.60165,2470.52,2022-12-13T05:31:50Z
2022-12-13T03:28:54Z,42.805,6.029,13.3036,4.60171,2470.497,2022-12-13T05:34:53Z
2022-12-13T03:31:57Z,42.805,6.029,13.3040,4.60150,2470.53,2022-12-13T05:37:56Z
2022-12-13T03:35:00Z,42.805,6.029,13.3051,4.60090,2470.52,2022-12-13T05:40:59Z
2022-12-13T03:38:03Z,42.805,6.029,13.3032,4.60102,2470.497,2022-12-13T05:44:02Z
2022-12-13T03:41:06Z,42.805,6.029,13.3058,4.60088,2470.497,2022-12-13T05:47:05Z
2022-12-13T03:44:09Z,42.805,6.029,13.3064,4.60126,2470.483,2022-12-13T05:50:09Z
2022-12-13T03:47:12Z,42.805,6.029,13.3073,4.60117,2470.497,2022-12-13T05:53:12Z
2022-12-13T03:50:16Z,42.805,6.029,13.3051,4.60114,2470.46,2022-12-13T05:56:15Z
2022-12-13T03:53:19Z,42.805,6.029,13.3085,4.60110,2470.507,2022-12-13T05:59:18Z
2022-12-13T03:56:22Z,42.805,6.029,13.3071,4.60144,2470.52,2022-12-13T06:02:21Z
2022-12-13T03:59:25Z,42.805,6.029,13.3070,4.60121,2470.474,2022-12-13T06:05:24Z
2022-12-13T04:02:28Z,42.805,6.029,13.3076,4.60152,2470.46,2022-12-13T06:08:27Z
2022-12-13T04:05:31Z,42.805,6.029,13.3068,4.60144,2470.483,2022-12-13T06:11:30Z
2022-12-13T04:08:34Z,42.805,6.029,13.3096,4.60137,2470.483,2022-12-13T06:14:33Z
2022-12-13T04:11:37Z,42.805,6.029,13.3058,4.60160,2470.483,2022-12-13T06:17:36Z
2022-12-13T04:14:40Z,42.805,6.029,13.3069,4.60176,2470.497,2022-12-13T06:20:39Z
2022-12-13T04:17:43Z,42.805,6.029,13.3095,4.60151,2470.507,2022-12-13T06:23:42Z
2022-12-13T04:20:46Z,42.805,6.029,13.3097,4.60144,2470.53,2022-12-13T06:26:46Z
2022-12-13T04:23:49Z,42.805,6.029,13.3074,4.60132,2470.507,2022-12-13T06:29:49Z
2022-12-13T04:26:53Z,42.805,6.029,13.3037,4.60122,2470.47,2022-12-13T06:32:52Z
2022-12-13T04:29:56Z,42.805,6.029,13.3043,4.60160,2470.507,2022-12-13T06:35:55Z
2022-12-13T04:32:59Z,42.805,6.029,13.3050,4.60154,2470.483,2022-12-13T06:38:58Z
2022-12-13T04:36:02Z,42.805,6.029,13.3057,4.60156,2470.474,2022-12-13T06:42:01Z
2022-12-13T04:39:05Z,42.805,6.029,13.3074,4.60190,2470.507,2022-12-13T06:45:04Z
2022-12-13T04:42:08Z,42.805,6.029,13.3096,4.60137,2470.52,2022-12-13T06:48:07Z
2022-12-13T04:45:11Z,42.805,6.029,13.3086,4.60117,2470.52,2022-12-13T06:51:10Z
2022-12-13T04:48:14Z,42.805,6.029,13.3091,4.60103,2470.507,2022-12-13T06:54:13Z
2022-12-13T04:51:17Z,42.805,6.029,13.3095,4.60127,2470.483,2022-12-13T06:57:16Z
2022-12-13T04:54:20Z,42.805,6.029,13.3098,4.60138,2470.507,2022-12-13T07:00:20Z
2022-12-13T04:57:23Z,42.805,6.029,13.3089,4.60132,2470.52,2022-12-13T07:03:23Z
2022-12-13T05:00:26Z,42.805,6.029,13.3085,4.60109,2470.497,2022-12-13T07:06:26Z
2022-12-13T05:03:30Z,42.805,6.029,13.3081,4.60133,2470.544,2022-12-13T07:09:29Z
2022-12-13T05:06:33Z,42.805,6.029,13.3080,4.60137,2470.483,2022-12-13T07:12:32Z
2022-12-13T05:09:36Z,42.805,6.029,13.3083,4.60117,2470.483,2022-12-13T07:15:35Z
2022-12-13T05:12:39Z,42.805,6.029,13.3065,4.60155,2470.558,2022-12-13T07:18:38Z
2022-12-13T05:15:42Z,42.805,6.029,13.3067,4.60119,2470.53,2022-12-13T07:21:41Z
2022-12-13T05:18:45Z,42.805,6.029,13.3097,4.60117,2470.553,2022-12-13T07:24:44Z
2022-12-13T05:21:48Z,42.805,6.029,13.3077,4.60121,2470.53,2022-12-13T07:27:47Z
2022-12-13T05:24:51Z,42.805,6.029,13.3066,4.60108,2470.53,2022-12-13T07:30:50Z
2022-12-13T05:27:54Z,42.805,6.029,13.3052,4.60103,2470.544,2022-12-13T07:33:53Z
2022-12-13T05:30:57Z,42.805,6.029,13.3056,4.60120,2470.544,2022-12-13T07:36:57Z
2022-12-13T05:34:00Z,42.805,6.029,13.3064,4.60102,2470.544,2022-12-13T07:40:00Z
2022-12-13T05:37:03Z,42.805,6.029,13.3068,4.60101,2470.544,2022-12-13T07:43:03Z
2022-12-13T05:40:07Z,42.805,6.029,13.3052,4.60087,2470.53,2022-12-13T07:46:06Z
2022-12-13T05:43:10Z,42.805,6.029,13.3054,4.60092,2470.544,2022-12-13T07:49:09Z
2022-12-13T05:46:13Z,42.805,6.029,13.3039,4.60115,2470.544,2022-12-13T07:52:12Z
2022-12-13T05:49:16Z,42.805,6.029,13.3058,4.60115,2470.544,2022-12-13T07:55:15Z
2022-12-13T05:52:19Z,42.805,6.029,13.3052,4.60092,2470.553,2022-12-13T07:58:18Z
2022-12-13T05:55:22Z,42.805,6.029,13.3047,4.60112,2470.567,2022-12-13T08:01:21Z
2022-12-13T05:58:25Z,42.805,6.029,13.3043,4.60099,2470.544,2022-12-13T08:04:24Z
2022-12-13T06:01:28Z,42.805,6.029,13.3054,4.60105,2470.567,2022-12-13T08:07:27Z
2022-12-13T06:04:31Z,42.805,6.029,13.3064,4.60131,2470.553,2022-12-13T08:10:31Z
2022-12-13T06:07:34Z,42.805,6.029,13.3062,4.60144,2470.553,2022-12-13T08:13:34Z
2022-12-13T06:10:37Z,42.805,6.029,13.3054,4.60114,2470.591,2022-12-13T08:16:37Z
2022-12-13T06:13:40Z,42.805,6.029,13.3061,4.60089,2470.567,2022-12-13T08:19:40Z
2022-12-13T06:16:44Z,42.805,6.029,13.3102,4.60087,2470.591,2022-12-13T08:22:43Z
2022-12-13T06:19:47Z,42.805,6.029,13.3068,4.60099,2470.577,2022-12-13T08:25:46Z
2022-12-13T06:22:50Z,42.805,6.029,13.3039,4.60097,2470.591,2022-12-13T08:28:49Z
2022-12-13T06:25:53Z,42.805,6.029,13.3049,4.60092,2470.591,2022-12-13T08:31:52Z
2022-12-13T06:28:56Z,42.805,6.029,13.3066,4.60095,2470.553,2022-12-13T08:34:55Z
2022-12-13T06:31:59Z,42.805,6.029,13.3069,4.60085,2470.591,2022-12-13T08:37:58Z
2022-12-13T06:35:02Z,42.805,6.029,13.3068,4.60098,2470.553,2022-12-13T08:41:01Z
2022-12-13T06:38:05Z,42.805,6.029,13.3070,4.60137,2470.591,2022-12-13T08:44:05Z
2022-12-13T06:41:08Z,42.805,6.029,13.3082,4.60148,2470.577,2022-12-13T08:47:08Z
2022-12-13T06:44:11Z,42.805,6.029,13.3069,4.60137,2470.553,2022-12-13T08:50:11Z
2022-12-13T06:47:14Z,42.805,6.029,13.3076,4.60096,2470.567,2022-12-13T08:53:14Z
2022-12-13T06:50:18Z,42.805,6.029,13.3096,4.60098,2470.6,2022-12-13T08:56:17Z
2022-12-13T06:53:21Z,42.805,6.029,13.3088,4.60084,2470.614,2022-12-13T08:59:20Z
2022-12-13T06:56:24Z,42.805,6.029,13.3103,4.60102,2470.591,2022-12-13T09:02:23Z
2022-12-13T06:59:27Z,42.805,6.029,13.3103,4.60143,2470.614,2022-12-13T09:05:26Z
2022-12-13T07:02:30Z,42.805,6.029,13.3097,4.60117,2470.614,2022-12-13T09:08:29Z
2022-12-13T07:05:33Z,42.805,6.029,13.3092,4.60135,2470.591,2022-12-13T09:11:32Z
2022-12-13T07:08:36Z,42.805,6.029,13.3096,4.60091,2470.614,2022-12-13T09:14:35Z
2022-12-13T07:11:39Z,42.805,6.029,13.3104,4.60094,2470.614,2022-12-13T09:17:38Z
2022-12-13T07:14:42Z,42.805,6.029,13.3078,4.60103,2470.6,2022-12-13T09:20:42Z
2022-12-13T07:17:45Z,42.805,6.029,13.3069,4.60096,2470.6,2022-12-13T09:23:45Z
2022-12-13T07:20:48Z,42.805,6.029,13.3063,4.60137,2470.661,2022-12-13T09:26:48Z
2022-12-13T07:23:52Z,42.805,6.029,13.3064,4.60115,2470.624,2022-12-13T09:29:51Z
2022-12-13T07:26:55Z,42.805,6.029,13.3071,4.60125,2470.661,2022-12-13T09:32:54Z
2022-12-13T07:29:58Z,42.805,6.029,13.3076,4.60135,2470.684,2022-12-13T09:35:57Z
2022-12-13T07:33:01Z,42.805,6.029,13.3078,4.60135,2470.637,2022-12-13T09:39:00Z
2022-12-13T07:36:04Z,42.805,6.029,13.3085,4.60103,2470.6,2022-12-13T09:42:03Z
2022-12-13T07:39:07Z,42.805,6.029,13.3091,4.60113,2470.624,2022-12-13T09:45:06Z
2022-12-13T07:42:10Z,42.805,6.029,13.3091,4.60126,2470.6,2022-12-13T09:48:09Z
2022-12-13T07:45:13Z,42.805,6.029,13.3093,4.60119,2470.624,2022-12-13T09:51:12Z
2022-12-13T07:48:16Z,42.805,6.029,13.3099,4.60115,2470.661,2022-12-13T09:54:16Z
2022-12-13T07:51:19Z,42.805,6.029,13.3080,4.60147,2470.661,2022-12-13T09:57:19Z
2022-12-13T07:54:22Z,42.805,6.029,13.3079,4.60131,2470.67,2022-12-13T10:00:22Z
2022-12-13T07:57:25Z,42.805,6.029,13.3089,4.60122,2470.646,2022-12-13T10:03:25Z
2022-12-13T08:00:29Z,42.805,6.029,13.3095,4.60125,2470.661,2022-12-13T10:06:28Z
2022-12-13T08:03:32Z,42.805,6.029,13.3102,4.60115,2470.693,2022-12-13T10:09:31Z
2022-12-13T08:06:35Z,42.805,6.029,13.3078,4.60125,2470.684,2022-12-13T10:12:34Z
2022-12-13T08:09:38Z,42.805,6.029,13.3033,4.60144,2470.693,2022-12-13T10:15:37Z
2022-12-13T08:12:41Z,42.805,6.029,13.3038,4.60144,2470.646,2022-12-13T10:18:40Z
2022-12-13T08:15:44Z,42.805,6.029,13.3101,4.60140,2470.679,2022-12-13T10:21:43Z
2022-12-13T08:18:47Z,42.805,6.029,13.3043,4.60146,2470.693,2022-12-13T10:24:46Z
2022-12-13T08:21:50Z,42.805,6.029,13.3063,4.60137,2470.67,2022-12-13T10:27:50Z
2022-12-13T08:24:53Z,42.805,6.029,13.3093,4.60127,2470.707,2022-12-13T10:30:53Z
2022-12-13T08:27:56Z,42.805,6.029,13.3104,4.60121,2470.707,2022-12-13T10:33:56Z
